SCP
0 0 0 0 0 0 0 0 0 0 1 1 0 0 0 0 0 0 0 0 0 0 0 0 1 1 0 0 0 0 0 0 1
0 1 1 1 1 1 1 0 0 0 0 1 1 0 1 1 1 0 0 0 0 0 0 0 1 1 1 1 0 0 1 0 1
0 1 1 1 2 2 2 1 1 1 1 1 1 1 1 1 0 1 0 0 0 0 0 1 1 1 1 1 1 0 1 1 1
1 1 1 1 1 1 2 1 1 1 1 1 1 1 1 0 0 0 0 0 0 1 1 1 0 1 1 1 1 0 1 1 0
1 1 1 1 1 1 1 1 1 1 1 1 1 1 1 1 1 0 0 0 0 1 0 0 0 1 1 1 0 0 0 0 0
1 1 2 1 1 1 1 1 1 1 1 2 1 1 1 1 1 1 0 0 1 0 0 0 0 0 0 0 0 0 0 0 0
0 1 1 2 2 1 1 1 1 1 1 1 2 1 2 4 2 2 1 1 1 0 0 0 0 0 0 0 0 0 0 0 0
0 1 2 1 1 1 0 0 0 0 0 1 2 3 2 2 2 1 1 1 1 1 1 0 0 0 -0 0 0 -0 0 0 0
1 1 1 1 1 0 0 0 0 0 0 1 1 1 1 1 2 2 1 2 1 1 0 0 0 0 0 0 0 0 0 0 1
1 1 1 1 1 0 0 0 0 0 0 0 0 0 1 1 1 1 1 1 1 1 0 -0 0 -0 -0 -0 0 0 0 0 0
1 1 1 0 0 0 0 0 0 0 0 0 0 0 0 0 0 0 1 1 1 1 1 1 1 0 0 0 0 0 0 0 0
0 0 0 0 0 0 0 0 0 0 0 0 0 0 1 1 0 0 0 0 1 1 1 1 1 1 1 0 -0 -0 0 0 0
0 0 0 0 0 0 0 0 0 0 1 1 1 1 1 1 1 1 1 1 1 1 1 1 0 0 1 0 0 0 0 0 0
0 0 0 0 0 0 0 0 0 0 1 1 1 1 1 1 1 1 1 1 1 1 1 1 1 1 1 1 0 0 0 0 1
0 0 0 0 0 0 0 0 1 1 1 1 2 1 1 1 1 1 0 1 1 0 1 1 2 2 1 0 1 1 1 0 0
0 0 0 0 0 0 0 0 1 1 2 1 1 1 1 1 1 1 1 1 1 1 1 0 0 0 0 0 0 1 1 0 0
0 0 0 0 0 0 0 1 1 1 1 1 1 1 1 1 1 1 1 0 0 0 0 0 0 0 0 0 0 0 1 2 0
0 0 0 0 0 0 0 0 0 1 1 1 1 1 0 0 0 0 0 1 0 0 0 0 0 0 0 0 0 0 1 3 2
0 0 0 0 0 0 0 0 0 1 1 1 0 1 0 0 0 0 0 0 0 0 0 0 0 0 0 0 0 0 0 1 0
0 0 0 0 0 0 0 0 0 0 0 1 1 1 0 0 0 0 0 0 0 0 0 0 0 0 0 0 0 0 0 0 0
Wind_Speed_500mb
14 16 14 12 11 19 28 32 32 35 33 29 22 22 28 31 30 26 25 25 25 25 23 24 27 27 28 36 35 40 43 42 38
17 21 21 18 12 8 14 21 23 24 27 25 28 24 25 30 31 32 31 30 30 32 39 30 28 31 42 38 40 42 43 47 49
16 13 12 13 12 8 7 8 13 14 17 20 18 23 26 23 30 35 35 35 38 37 31 33 31 43 33 38 41 45 47 48 47
8 15 7 9 13 12 11 9 5 3 7 12 18 24 29 34 26 25 31 37 41 37 31 38 37 34 33 34 37 39 43 52 48
10 11 5 6 10 11 10 10 8 3 7 2 13 19 26 32 34 32 40 38 38 40 42 34 38 32 33 33 30 31 33 42 46
5 1 2 8 8 4 4 3 4 6 7 11 16 21 26 26 30 34 32 35 41 48 45 33 34 33 30 26 28 23 27 34 37
23 6 5 8 2 2 3 3 4 6 9 14 15 3 10 15 11 18 17 24 27 34 41 34 36 35 36 25 20 25 27 35 38
13 3 4 3 4 3 3 3 3 7 11 15 16 11 1 8 12 15 21 22 25 23 26 36 47 47 34 38 28 12 26 33 36
3 2 4 3 4 5 4 5 5 7 9 11 11 7 7 7 11 12 13 14 20 29 29 56 54 50 48 47 43 43 23 31 40
5 6 8 10 10 12 11 15 16 13 15 15 14 12 12 13 13 15 15 16 17 16 19 20 47 49 57 67 40 40 49 43 46
11 13 15 16 19 21 24 25 26 25 25 26 25 23 23 21 21 21 21 20 23 21 24 24 31 46 50 47 47 51 45 45 52
15 19 24 28 32 36 37 39 39 39 39 37 37 37 36 33 30 33 32 30 30 35 32 30 33 37 35 44 52 55 49 43 50
30 39 44 49 53 55 54 51 51 51 51 51 51 53 55 52 47 44 46 46 43 46 46 47 39 37 44 41 43 50 47 43 46
49 49 50 51 53 56 57 55 53 55 55 55 55 57 57 60 61 57 54 55 58 55 57 56 53 56 52 54 49 44 46 46 49
54 56 55 57 60 61 60 59 58 62 64 62 57 57 59 59 60 60 55 55 54 51 44 51 58 59 59 51 49 55 49 49 55
61 62 62 61 63 65 63 63 62 63 64 60 59 58 56 55 59 66 67 63 61 62 61 61 57 55 55 51 45 44 50 47 57
67 66 66 65 65 64 65 69 70 66 65 62 62 62 61 56 58 60 63 61 61 61 58 60 63 60 57 52 50 48 42 48 50
70 70 65 59 62 62 64 64 74 66 66 65 62 61 60 59 57 56 61 65 64 65 63 60 59 57 56 55 52 48 47 44 44
64 71 74 77 79 76 72 69 75 67 62 63 62 60 59 57 56 56 55 60 65 69 67 65 68 72 73 56 44 42 34 42 46
62 68 71 74 72 71 70 68 70 73 69 65 62 63 59 55 58 58 56 55 59 63 56 54 59 57 77 83 82 67 61 54 53
Wind_Direction_500mb
71 80 97 108 161 193 198 208 216 221 225 223 226 225 226 231 235 234 232 236 226 233 231 233 233 243 242 241 242 240 236 234 228
66 76 80 86 102 171 195 204 210 220 225 230 229 227 226 232 230 229 223 233 237 233 229 224 230 230 242 245 236 234 235 235 233
120 81 65 77 86 98 135 186 212 225 229 231 227 229 229 230 219 238 238 231 235 236 241 236 235 243 241 249 246 242 240 231 231
2 74 102 114 104 103 93 101 119 212 234 247 251 242 236 236 232 232 239 235 241 240 252 262 247 249 245 244 248 245 241 234 226
66 339 116 137 111 97 89 82 67 49 309 250 267 250 237 243 251 245 237 241 239 238 253 287 249 247 250 245 238 248 244 220 213
352 161 350 212 151 80 76 74 28 19 354 352 309 261 232 238 243 256 253 249 255 248 264 269 253 248 242 253 238 242 224 214 215
296 47 73 1 230 106 61 67 42 31 16 18 13 87 201 208 229 267 262 273 271 272 250 259 265 245 243 243 247 234 219 224 222
298 321 343 348 2 2 17 27 33 19 23 25 30 36 258 275 278 292 289 285 269 273 271 278 263 266 236 236 225 225 221 226 219
296 107 230 268 284 299 303 315 318 325 339 348 3 16 347 332 328 339 344 327 305 272 286 311 265 263 251 237 228 229 218 226 221
273 256 265 283 289 286 292 293 291 289 298 307 307 305 295 295 301 308 319 317 320 312 272 251 260 263 256 247 231 241 239 236 229
278 283 289 282 284 289 290 291 289 290 287 286 290 285 280 278 281 282 281 288 291 288 297 292 275 264 264 266 256 252 247 235 230
283 289 291 288 284 287 289 287 285 282 278 275 271 270 270 271 271 273 274 274 270 276 276 276 279 291 281 264 262 260 255 246 233
296 293 291 291 289 286 285 284 283 281 278 275 270 269 271 271 266 262 265 269 264 271 276 276 281 280 285 279 271 265 257 251 242
298 294 290 288 286 284 284 284 282 279 278 275 275 274 272 269 267 263 261 263 267 269 270 269 263 264 264 274 276 272 264 244 235
295 294 292 290 288 285 283 280 277 276 276 275 274 273 273 271 269 268 265 262 264 265 250 255 266 269 270 265 271 280 267 243 235
294 293 292 292 289 287 284 280 277 277 274 273 274 271 268 268 268 266 264 262 256 252 254 254 254 257 260 261 259 253 265 262 235
293 291 291 291 292 288 287 283 281 275 275 274 272 267 265 268 269 266 265 261 256 253 252 252 252 251 249 251 254 253 258 255 250
297 295 295 297 297 295 289 285 280 272 275 271 268 266 266 266 266 263 263 258 254 251 251 249 252 251 250 250 251 250 245 244 251
304 300 296 295 294 289 287 284 279 279 272 272 269 264 262 263 263 262 260 259 259 254 253 251 248 246 250 249 245 239 228 236 245
303 303 298 294 292 292 291 288 285 275 268 268 267 262 262 260 259 259 256 257 262 264 261 258 261 262 247 248 248 250 252 257 258
Wind_Speed_850mb
14 16 14 12 11 19 28 32 32 35 33 29 22 22 28 31 30 26 25 25 25 25 23 24 27 27 28 36 35 40 43 42 38
17 21 21 18 12 8 14 21 23 24 27 25 28 24 25 30 31 32 31 30 30 32 39 30 28 31 42 38 40 42 43 47 49
16 13 12 13 12 8 7 8 13 14 17 20 18 23 26 23 30 35 35 35 38 37 31 33 31 43 33 38 41 45 47 48 47
8 15 7 9 13 12 11 9 5 3 7 12 18 24 29 34 26 25 31 37 41 37 31 38 37 34 33 34 37 39 43 52 48
10 11 5 6 10 11 10 10 8 3 7 2 13 19 26 32 34 32 40 38 38 40 42 34 38 32 33 33 30 31 33 42 46
5 1 2 8 8 4 4 3 4 6 7 11 16 21 26 26 30 34 32 35 41 48 45 33 34 33 30 26 28 23 27 34 37
23 6 5 8 2 2 3 3 4 6 9 14 15 3 10 15 11 18 17 24 27 34 41 34 36 35 36 25 20 25 27 35 38
13 3 4 3 4 3 3 3 3 7 11 15 16 11 1 8 12 15 21 22 25 23 26 36 47 47 34 38 28 12 26 33 36
3 2 4 3 4 5 4 5 5 7 9 11 11 7 7 7 11 12 13 14 20 29 29 56 54 50 48 47 43 43 23 31 40
5 6 8 10 10 12 11 15 16 13 15 15 14 12 12 13 13 15 15 16 17 16 19 20 47 49 57 67 40 40 49 43 46
11 13 15 16 19 21 24 25 26 25 25 26 25 23 23 21 21 21 21 20 23 21 24 24 31 46 50 47 47 51 45 45 52
15 19 24 28 32 36 37 39 39 39 39 37 37 37 36 33 30 33 32 30 30 35 32 30 33 37 35 44 52 55 49 43 50
30 39 44 49 53 55 54 51 51 51 51 51 51 53 55 52 47 44 46 46 43 46 46 47 39 37 44 41 43 50 47 43 46
49 49 50 51 53 56 57 55 53 55 55 55 55 57 57 60 61 57 54 55 58 55 57 56 53 56 52 54 49 44 46 46 49
54 56 55 57 60 61 60 59 58 62 64 62 57 57 59 59 60 60 55 55 54 51 44 51 58 59 59 51 49 55 49 49 55
61 62 62 61 63 65 63 63 62 63 64 60 59 58 56 55 59 66 67 63 61 62 61 61 57 55 55 51 45 44 50 47 57
67 66 66 65 65 64 65 69 70 66 65 62 62 62 61 56 58 60 63 61 61 61 58 60 63 60 57 52 50 48 42 48 50
70 70 65 59 62 62 64 64 74 66 66 65 62 61 60 59 57 56 61 65 64 65 63 60 59 57 56 55 52 48 47 44 44
64 71 74 77 79 76 72 69 75 67 62 63 62 60 59 57 56 56 55 60 65 69 67 65 68 72 73 56 44 42 34 42 46
62 68 71 74 72 71 70 68 70 73 69 65 62 63 59 55 58 58 56 55 59 63 56 54 59 57 77 83 82 67 61 54 53
Wind_Direction_850mb
71 80 97 108 161 193 198 208 216 221 225 223 226 225 226 231 235 234 232 236 226 233 231 233 233 243 242 241 242 240 236 234 228
66 76 80 86 102 171 195 204 210 220 225 230 229 227 226 232 230 229 223 233 237 233 229 224 230 230 242 245 236 234 235 235 233
120 81 65 77 86 98 135 186 212 225 229 231 227 229 229 230 219 238 238 231 235 236 241 236 235 243 241 249 246 242 240 231 231
2 74 102 114 104 103 93 101 119 212 234 247 251 242 236 236 232 232 239 235 241 240 252 262 247 249 245 244 248 245 241 234 226
66 339 116 137 111 97 89 82 67 49 309 250 267 250 237 243 251 245 237 241 239 238 253 287 249 247 250 245 238 248 244 220 213
352 161 350 212 151 80 76 74 28 19 354 352 309 261 232 238 243 256 253 249 255 248 264 269 253 248 242 253 238 242 224 214 215
296 47 73 1 230 106 61 67 42 31 16 18 13 87 201 208 229 267 262 273 271 272 250 259 265 245 243 243 247 234 219 224 222
298 321 343 348 2 2 17 27 33 19 23 25 30 36 258 275 278 292 289 285 269 273 271 278 263 266 236 236 225 225 221 226 219
296 107 230 268 284 299 303 315 318 325 339 348 3 16 347 332 328 339 344 327 305 272 286 311 265 263 251 237 228 229 218 226 221
273 256 265 283 289 286 292 293 291 289 298 307 307 305 295 295 301 308 319 317 320 312 272 251 260 263 256 247 231 241 239 236 229
278 283 289 282 284 289 290 291 289 290 287 286 290 285 280 278 281 282 281 288 291 288 297 292 275 264 264 266 256 252 247 235 230
283 289 291 288 284 287 289 287 285 282 278 275 271 270 270 271 271 273 274 274 270 276 276 276 279 291 281 264 262 260 255 246 233
296 293 291 291 289 286 285 284 283 281 278 275 270 269 271 271 266 262 265 269 264 271 276 276 281 280 285 279 271 265 257 251 242
298 294 290 288 286 284 284 284 282 279 278 275 275 274 272 269 267 263 261 263 267 269 270 269 263 264 264 274 276 272 264 244 235
295 294 292 290 288 285 283 280 277 276 276 275 274 273 273 271 269 268 265 262 264 265 250 255 266 269 270 265 271 280 267 243 235
294 293 292 292 289 287 284 280 277 277 274 273 274 271 268 268 268 266 264 262 256 252 254 254 254 257 260 261 259 253 265 262 235
293 291 291 291 292 288 287 283 281 275 275 274 272 267 265 268 269 266 265 261 256 253 252 252 252 251 249 251 254 253 258 255 250
297 295 295 297 297 295 289 285 280 272 275 271 268 266 266 266 266 263 263 258 254 251 251 249 252 251 250 250 251 250 245 244 251
304 300 296 295 294 289 287 284 279 279 272 272 269 264 262 263 263 262 260 259 259 254 253 251 248 246 250 249 245 239 228 236 245
303 303 298 294 292 292 291 288 285 275 268 268 267 262 262 260 259 259 256 257 262 264 261 258 261 262 247 248 248 250 252 257 258